Regional Weather Roundup
Issued by NWS Charleston, SC

Current Version | Previous Version | Text Only | Print | Product List | Glossary Off
Versions: 1 2 3 4 5 6 7 8 9 10 11 12 13 14 15 16 17 18 19 20 21 22 23 24 25 26 27 28 29 30 31 32 33 34 35 36 37 38 39 40 41 42 43 44 45 46 47 48 49 50

000
ASUS42 KCHS 210212
RWRCHS

REGIONAL WEATHER ROUNDUP
NATIONAL WEATHER SERVICE CHARLESTON SC
900 PM EST FRI JAN 20 2017

NOTE: "FAIR" INDICATES FEW OR NO CLOUDS BELOW 12,000 FEET WITH NO
SIGNIFICANT WEATHER AND/OR OBSTRUCTIONS TO VISIBILITY.

NOT ALL STATIONS ARE QUALITY CONTROLLED. USE DATA WITH CAUTION...
ESPECIALLY DEWPOINT OBSERVATIONS.

SCZ027-030-031-034>040-042>050-210300-
...SOUTHEAST SOUTH CAROLINA...

CITY           SKY/WX    TMP DP  RH WIND       PRES   REMARKS
N CHARLESTON   CLEAR     61  59  93 S3        29.92R
WATERFRONT PRK   N/A     63  61  93 VRB3      29.90R
MOUNT PLEASANT FAIR      61  59  94 CALM      29.92R
JOHNS ISLAND   FAIR      63  61  94 SW6       29.92R
PINOPOLIS        N/A     66  63  88 SW7       29.81R
MONCKS CORNER  FAIR      59  57  94 SW5       29.92R
SUMMERVILLE    FAIR     N/A N/A N/A S3        29.92R
BEAUFORT MCAS  PTCLDY    62  60  93 SE3       29.92R
BEAUFORT ARPT  MOCLDY    63  61  94 S6        29.92R
HILTON HEAD IS PTCLDY    63  63 100 CALM      29.93R
WALTERBORO     PTCLDY    61  59  94 CALM      29.92R
ALLENDALE      FAIR      63  59  88 CALM      29.90R

...SOUTHERN MIDLANDS AND PEE DEE...

CITY           SKY/WX    TMP DP  RH WIND       PRES   REMARKS
GEORGETOWN     FAIR      59  59 100 CALM      29.92R
KINGSTREE      FAIR      61  55  82 CALM      29.90R
ORANGEBURG     PTCLDY    61  58  90 S7        29.90R
BARNWELL       FAIR      66  61  82 S5        29.90R
AIKEN          FAIR      63  55  77 S7        29.92R
MANNING        FAIR      59  54  82 CALM      29.90R
COLUMBIA       PTCLDY    62  56  80 CALM      29.87R
SUMTER         CLEAR     62  56  82 S5        29.87R
FLORENCE       PTCLDY    60  58  92 S5        29.89R
MYRTLE BEACH   CLEAR     59  54  82 S7        29.92R
N MYRTLE BEACH MOCLDY    54  54 100 CALM      29.90R FOG

$$

GAZ063-065-086>088-099>101-113>116-118-119-134>141-150-210300-
...SOUTHEAST GEORGIA...

CITY           SKY/WX    TMP DP  RH WIND       PRES   REMARKS
SAVANNAH ARPT  MOCLDY    64  59  83 S3        29.92R
HUNTER AAF     MOCLDY    65  65 100 S5        29.90R
FORT STEWART   CLOUDY    64  61  89 CALM      29.90R
STATESBORO     MOCLDY    59  32  36 CALM      29.91S
SYLVANIA       CLEAR    N/A N/A N/A CALM      29.91S
CLAXTON        CLOUDY   N/A N/A N/A CALM      29.91R

...CSRA...CENTRAL AND FAR SOUTHEAST GEORGIA...

CITY           SKY/WX    TMP DP  RH WIND       PRES   REMARKS
THOMSON        CLEAR     66  61  84 CALM      29.92S
AUGUSTA-BUSH   CLEAR     67  59  75 SW9       29.88R
AUGUSTA-DANIEL CLEAR     67  56  67 SW6       29.89R
SWAINSBORO     CLOUDY    64  61  88 CALM      29.91R
VIDALIA        CLOUDY    68  64  88 S5        29.91R
EASTMAN        DRIZZLE   67  67  97 CALM      29.93S
HAZLEHURST     RAIN      68  68 100 CALM      29.90R
ALMA           CLOUDY    68  67  96 S5        29.91R
WAYCROSS       CLOUDY    72  72 100 SW6       29.92S
JESUP          CLOUDY    68  64  88 CALM      29.93R
BAXLEY         CLOUDY    70  70 100 CALM      29.91S
BRUNSWICK      CLOUDY    70  64  83 S3        29.93S
SAINT SIMONS   CLOUDY    68  63  84 CALM      29.93R

$$

SCZ027-028-034-036>038-045-046-048>050-GAZ119-141-210300-
...LAKE AND SUPPLEMENTAL COASTAL OBSERVATIONS...

STATION/POSITION TIME  TEMP    WIND        PRES    WAVE   SWELL
                       AIR SEA DIR/SP/G            HT/PER HT/PER/DIR
                 (UTC) (F)     (DEG/KT/KT) (MB)    (FT/S) (FT/S/D)
WINYAH BAY       0045   61     200/  3     1012.0
LAKE MURRAY      0120   62        CALM     1010.8S
ACE BASIN NERRS  NOT AVBL
FORT PULASKI     0136   62 58  200/  3/  4 1013.3R
SAPELO ISLAND    0100   66     150/  5     1013.0

$$

ANZ835-935-AMZ111-154-330-350-352-354-370-450-454-472-210300-
...C-MAN AND BUOY OBSERVATIONS...

STATION/POSITION TIME  TEMP    WIND        PRES    WAVE   SWELL
                       AIR SEA DIR/SP/G            HT/PER HT/PER/DIR
                 (UTC) (F)     (DEG/KT/KT) (MB)    (FT/S) (FT/S/D)
BUOY 41004       0050   69 69  220/ 10/ 12 1012.2    3/12   2/ 90/12
BUOY 41008       0050   63 61  160/  6/  6 1012.6    2/ 5   2/140/ 5
FOLLY BEACH CMAN 0100   59     220/  5/  6 1013.0R
CAPERS NEARSHORE 0108   57 56  240/  4/  8 1012.6R
FRIPP NEARSHORE  0108   61 59  210/  6/  8 1012.6R


STATION/POSITION TIME  TEMP    WIND        PRES    WAVE   SWELL
                       AIR SEA DIR/SP/G            HT/PER HT/PER/DIR
                 (UTC) (F)     (DEG/KT/KT) (MB)    (FT/S) (FT/S/D)
5E ST. MARYS GA  0200      65                N/A     2/ 9
FRYING PAN BUOY  0120   69 71  240/ 16/ 17 1012.0
BUOY 41025       0050   67 76  290/ 12/ 16 1010.7    5/13   3/ 90/13
CAPE LOOKOUT NC  0100   60     320/  3/  4 1011.1R
BUOY 41002       0050   72 70  200/  8/ 10 1013.4    5/12   5/ 20/12
BUOY 41010       NOT AVBL
ST AUGUSTINE FL  0100   72 63  230/  4/  5 1014.5R


$$




USA.gov is the U.S. government's official web portal to all federal, state and local government web resources and services.